Torna al catalogo

STARLINK-32330

AttivoComunicazioniVLEO
NORAD 61850·PAYLOAD·🇺🇸 United States

Lanciato Nov 7, 2024 da Cape Canaveral Space Force Station

Loading…

Prossimi Passaggi (prossime 24 ore)

TLE

AggiornatoSource: CelesTrak SupGP

Epoca: Sep 14, 2026, 21:04 UTC

1 61850C 24202F   26257.87826389  .00033376  00000+0  12089-2 0  2573
2 61850  42.9992 249.1951 0001323 266.6842 168.4161 15.27559887    16

Traccia STARLINK-32330 in tempo reale con AllMySat

Download on the App Store